Flag for Guinea Weather past 2 weeks in Nzérékoré, Guinea

Now
73 °F

Fog.


Feels Like: 70 °F
Forecast: 61 / 95 °F
Wind: No wind

Location: Roberts Field

Current Time: Mar 2, 2015 at 7:29:21 AM

Latest Report: Mar 2, 2015 at 7:00 AM


Visibility: 2 mi

Pressure: 29.86 "Hg

Humidity: 94%

Dew point: 72 °F

Location of NzérékoréLocation

Historic Weather in Nzérékoré — Graph

°F

Nzérékoré temperature yesterday

Maximum temperature yesterday: 91 °F (at 1:30 PM)
Minimum temperature yesterday: 73 °F (at 3:30 AM)
Average temperature yesterday: 80 °F

Past Weeks' High & Low Weather Summary

 TemperatureHumidityPressure
High91 °F (Feb 17, 1:30 PM)100% (Feb 19, 4:00 AM)29.98 "Hg (Feb 19, 4:00 AM)
Low72 °F (Feb 18, 6:00 AM)55% (Feb 18, 2:00 PM)29.74 "Hg (Feb 18, 3:30 PM)
Average80 °F83%29.85 "Hg
* Reported Feb 16 11:00 AM — Mar 2 6:30 AM, Nzérékoré, Weather by CustomWeather, © 2015

Note: Actual official high and low records may vary slightly from our data, if they occured in-between our weather recording intervals... More about our weather records

Advertising

Nzérékoré weather history for previous 24 hours

 ConditionsComfort  
Time TempWeatherWind HumidityBarometerVisibility
6:30 AM
Mon, Mar 2
72 °FFog.No wind94%29.86 "Hg2 mi
6:00 AM72 °FFog.No wind94%29.86 "Hg2 mi
5:30 AM73 °FPassing clouds.No wind94%29.86 "Hg4 mi
5:00 AM73 °FClear.No wind94%29.86 "Hg4 mi
4:30 AM73 °FClear.No wind94%29.86 "Hg4 mi
4:00 AM73 °FClear.No wind94%29.86 "Hg4 mi
3:30 AM73 °FClear.No wind94%29.86 "Hg4 mi
3:00 AM73 °FClear.No wind94%29.86 "Hg4 mi
2:30 AM73 °FClear.No wind94%29.86 "Hg4 mi
1:30 AM73 °FClear.No wind94%29.86 "Hg4 mi
1:00 AM73 °FClear.No wind94%29.89 "Hg4 mi
12:30 AM73 °FClear.No wind94%29.89 "Hg4 mi
11:30 PM
Sun, Mar 1
73 °FClear.No wind94%29.89 "Hg4 mi
11:00 PM75 °FClear.No wind94%29.89 "Hg4 mi
10:30 PM75 °FClear.No wind94%29.89 "Hg4 mi
10:00 PM75 °FClear.No wind94%29.89 "Hg4 mi
9:00 PM77 °FClear.No wind89%29.86 "Hg4 mi
8:30 PM77 °FClear.No wind89%29.86 "Hg4 mi
8:00 PM75 °FClear.No wind94%29.83 "Hg4 mi
7:30 PM82 °FSunny.5 mph74%29.80 "Hg5 mi
7:00 PM81 °FClear.5 mph84%29.80 "Hg5 mi
5:30 PM86 °FSunny.5 mph66%29.77 "Hg5 mi
4:00 PM86 °FSunny.12 mph66%29.77 "Hg5 mi
3:30 PM88 °FSunny.9 mph66%29.80 "Hg5 mi
3:00 PM88 °FSunny.8 mph66%29.80 "Hg5 mi
2:30 PM90 °FSunny.12 mph63%29.80 "Hg5 mi
2:00 PM91 °FSunny.5 mph56%29.83 "Hg5 mi
1:30 PM91 °FSunny.3 mph56%29.83 "Hg5 mi
1:00 PM90 °FSunny.No wind55%29.86 "Hg5 mi
12:30 PM90 °FPassing clouds.5 mph59%29.86 "HgN/A
12:00 PM88 °FPassing clouds.No wind59%29.89 "HgN/A
11:30 AM86 °FPassing clouds.5 mph62%29.89 "HgN/A
11:00 AM84 °FPassing clouds.9 mph62%29.92 "HgN/A
10:30 AM82 °FPassing clouds.6 mph66%29.92 "HgN/A
10:00 AM81 °FPassing clouds.3 mph79%29.92 "HgN/A
9:30 AM79 °FPassing clouds.No wind79%29.95 "Hg6 mi
9:00 AM77 °FPassing clouds.No wind83%29.95 "Hg6 mi
8:30 AM75 °FPassing clouds.No wind94%29.92 "Hg5 mi
8:00 AM73 °FScattered clouds.No wind94%29.92 "Hg4 mi
7:30 AM73 °FPassing clouds.No wind94%29.92 "Hg4 mi
7:00 AM73 °FPassing clouds.No wind94%29.89 "Hg4 mi
Weather by CustomWeather, © 2015

See weather overviewHow to use our weather pages